Вернуться в каталог

SPACEVAN-001

АктивенСвязьSSO
NORAD 58295·PAYLOAD·🇫🇷 France

Запущен Nov 11, 2023 с Vandenberg Space Force Base

Loading…

Ближайшие Пролёты (ближайшие 24 часа)

TLE

СвежийSource: Space-Track

Эпоха: Sep 14, 2026, 14:36 UTC

1 58295U 23174AR  26257.60842601  .00029913  00000-0  36432-3 0  9990
2 58295  97.4006 358.2888 0008001 101.2810 258.9347 15.60436619160074

Отслеживайте SPACEVAN-001 в реальном времени с AllMySat

Download on the App Store